Theta_e
348 348 349 351 350 349 346 351 350 351 350 349 351 348 347 348 348 349 350 362 361 363 365 364 364 366 364 362 361 361 360 357 359 359 360 361 360 359 358 357 357 357 357
348 346 348 347 351 350 352 350 349 349 350 351 351 350 350 352 350 349 349 353 362 362 363 365 366 366 365 366 365 364 362 362 361 361 362 363 362 361 360 359 358 358 359
351 349 345 346 350 353 350 350 351 352 351 352 351 351 350 351 350 349 349 348 354 364 364 364 364 365 366 365 366 366 365 363 362 362 362 363 363 362 361 362 361 361 360
347 345 347 348 351 349 348 352 349 350 350 349 347 351 351 352 351 353 351 350 353 354 363 364 364 364 366 367 365 366 366 364 363 362 363 363 363 362 362 361 361 360 361
350 349 351 352 351 351 347 350 349 350 346 347 350 349 352 352 351 353 349 352 353 352 353 360 362 363 365 366 365 365 365 364 363 364 363 363 362 362 362 362 361 361 360
354 354 355 355 354 352 349 351 347 350 349 349 351 349 346 346 351 351 352 355 350 352 352 352 356 357 363 366 366 364 364 364 363 363 363 363 362 362 361 362 361 361 361
353 353 353 353 353 348 350 351 349 349 349 351 346 344 349 349 344 344 349 353 354 350 352 351 354 354 355 364 364 365 365 364 364 364 363 363 362 361 360 360 361 360 360
352 352 351 352 350 341 338 349 349 346 347 350 343 343 334 338 343 347 349 351 352 351 353 352 354 355 354 354 358 364 364 363 363 363 362 362 362 361 360 359 359 360 359
356 355 356 353 349 345 343 349 349 347 343 347 349 342 331 328 335 342 345 350 351 347 345 345 352 353 352 356 360 361 363 361 364 364 362 363 362 362 362 360 360 360 359
354 354 357 355 352 351 350 350 352 350 349 342 345 348 346 344 332 330 340 344 349 348 341 342 346 349 352 358 353 356 361 360 361 363 364 365 363 363 363 362 360 360 359
351 350 355 353 352 353 351 351 351 349 349 346 344 344 346 343 343 338 332 336 337 341 342 340 344 346 348 347 348 349 350 356 358 361 362 363 365 364 365 365 363 362 362
353 353 354 352 355 354 352 353 353 351 349 350 351 347 345 340 336 337 336 336 336 340 341 346 345 347 348 347 349 346 349 350 355 357 358 360 363 364 366 366 365 364 364
350 350 352 355 354 353 357 355 352 351 351 350 349 349 350 348 345 344 340 338 338 341 343 345 344 349 349 345 343 343 346 349 352 353 354 356 359 361 363 365 366 366 365
346 347 347 347 349 348 349 351 351 350 351 349 348 348 349 351 348 343 341 339 336 336 339 340 345 346 345 344 344 348 349 348 347 348 350 351 354 356 358 359 359 361 361
338 338 339 340 340 341 342 345 346 347 347 348 349 349 347 348 350 349 348 345 340 334 332 337 340 346 347 345 345 346 344 349 346 347 346 346 348 350 352 353 354 355 355
332 332 332 333 335 336 337 339 340 342 341 343 348 347 347 348 350 349 346 345 345 339 336 340 342 344 346 344 343 342 342 347 345 345 345 344 345 346 347 348 349 350 351
330 330 331 331 332 332 333 333 334 335 335 336 339 342 344 347 347 348 348 344 344 342 339 342 343 347 342 340 343 343 342 341 347 344 343 342 341 342 344 345 346 346 347
331 331 331 330 331 331 331 330 331 332 333 334 335 334 335 340 341 345 346 345 343 344 340 339 342 344 342 344 343 340 343 354 354 350 341 340 339 339 339 340 341 341 340
330 330 330 329 330 330 330 328 328 328 328 328 328 328 329 333 333 340 341 342 343 345 343 340 341 343 345 345 345 346 349 351 356 351 345 338 338 338 337 335 335 333 331
329 332 331 332 332 327 328 327 326 325 326 328 328 328 328 328 329 336 335 339 341 339 339 338 338 339 341 344 345 343 344 346 348 354 350 346 342 340 338 335 334 333 328
327 328 327 330 329 329 328 324 323 323 322 324 328 330 330 332 339 335 335 336 338 337 336 335 335 336 338 337 337 339 340 343 345 348 347 346 337 337 343 337 340 338 332
326 326 325 326 327 329 326 326 324 319 320 322 324 329 331 335 332 336 338 338 340 336 333 333 334 335 335 336 339 338 337 336 335 346 342 342 337 336 342 343 342 335 332
325 325 327 328 328 324 324 323 324 319 320 323 326 329 331 335 329 329 332 336 336 336 336 336 333 334 334 337 336 335 336 337 335 342 341 338 342 340 343 344 333 331 330
324 327 328 331 325 322 322 320 322 320 323 323 324 328 330 326 322 323 326 331 332 335 336 337 335 337 338 339 337 336 335 336 338 340 340 334 339 339 342 338 333 331 329
320 320 324 324 324 321 318 317 317 317 319 318 322 328 324 321 320 318 321 323 328 331 332 332 331 330 329 327 329 328 325 324 323 328 335 335 334 336 340 341 338 331 327
320 320 322 325 326 321 316 316 315 315 313 315 318 325 324 322 318 318 318 320 320 322 323 327 330 332 332 334 330 329 328 327 325 325 331 329 329 332 328 337 340 339 339
Wind_Speed
2 3 3 3 4 4 4 3 4 5 5 5 5 8 8 8 6 4 3 16 18 21 20 20 19 19 20 19 18 17 17 17 15 15 15 15 13 12 11 11 11 10 10
3 2 1 2 2 4 4 4 4 4 3 3 4 6 6 5 5 7 7 9 22 19 19 18 20 19 20 20 19 19 18 18 17 17 16 15 15 14 13 13 13 12 12
4 3 1 2 4 2 3 2 3 3 3 4 5 6 5 6 5 4 7 6 9 18 19 16 18 19 20 21 20 20 19 19 19 18 18 17 15 15 14 14 14 13 13
5 4 1 4 1 1 2 2 3 2 3 4 4 5 5 5 6 7 5 7 7 7 13 18 19 19 19 20 20 20 20 20 20 19 18 18 17 17 16 15 14 13 12
6 4 4 4 3 3 3 2 2 3 3 4 4 5 5 4 6 8 6 7 8 7 5 17 20 20 20 20 20 21 21 21 21 20 19 19 18 18 17 17 16 15 14
5 4 4 6 4 3 4 4 4 3 4 5 3 5 5 5 4 4 5 5 6 10 9 8 8 10 21 21 21 20 20 21 21 21 21 20 19 18 18 18 17 16 15
4 5 4 4 3 1 4 5 3 5 4 3 1 3 5 4 4 4 6 5 6 11 10 11 7 7 9 22 19 19 21 21 20 22 22 20 19 19 18 17 17 16 15
4 5 6 5 5 1 4 5 5 2 3 4 4 2 3 4 4 3 5 4 7 4 3 4 8 7 6 5 12 24 21 19 20 21 21 21 21 20 18 18 17 17 16
10 5 6 5 4 2 3 6 5 5 4 3 4 3 2 2 2 2 5 2 2 2 2 5 4 4 4 4 6 13 20 20 21 22 21 20 20 20 19 19 18 18 17
7 8 6 2 4 4 5 4 3 3 3 5 1 3 2 4 2 4 3 2 3 4 1 2 4 3 4 4 11 18 17 23 20 21 22 21 21 20 20 19 19 18 18
7 3 4 3 3 2 3 5 4 4 2 3 3 2 1 1 3 3 3 2 2 3 3 4 4 3 2 6 9 16 19 17 20 20 21 22 21 21 21 20 20 19 19
3 4 5 4 4 3 4 4 4 5 5 5 4 3 3 2 2 2 3 3 4 4 5 6 2 6 4 2 5 14 27 27 23 20 21 20 20 22 22 22 21 21 21
3 6 6 6 5 5 5 4 4 5 5 4 5 4 3 4 3 3 2 3 3 3 4 5 2 3 4 3 4 0 14 27 17 17 17 18 18 19 20 21 21 21 21
4 5 5 6 5 4 4 5 3 3 4 3 5 5 4 4 3 3 3 4 4 2 3 4 1 2 4 5 8 19 11 19 6 12 15 17 17 16 16 16 16 18 20
6 6 7 6 6 5 5 5 3 4 4 4 5 5 4 4 4 4 4 3 4 4 4 3 3 5 4 6 13 7 12 5 10 14 14 14 14 14 14 15 15 15 15
7 7 6 6 6 6 6 6 4 5 5 4 4 6 4 3 4 4 4 4 3 4 5 4 4 5 6 5 7 8 7 8 13 15 16 17 15 15 16 15 14 15 16
5 5 5 5 6 6 6 6 6 6 6 6 6 6 6 6 5 4 3 3 4 3 5 4 5 4 7 8 8 11 10 9 9 13 16 16 15 15 16 16 16 17 16
4 5 4 5 6 6 6 6 6 7 7 7 7 7 6 7 8 7 3 5 4 4 4 9 4 3 5 8 8 9 10 9 8 11 17 15 12 11 12 14 15 15 16
6 5 4 5 5 6 7 6 6 7 6 6 6 6 6 6 7 6 6 5 4 3 3 4 5 2 4 4 5 6 6 5 6 9 10 10 14 14 15 12 13 15 16
6 7 6 7 7 6 8 7 8 9 9 8 8 7 7 7 7 6 8 7 5 4 3 2 2 3 3 4 3 3 6 2 4 5 2 6 10 12 12 13 14 18 16
5 5 6 6 6 4 5 6 6 6 7 9 9 8 7 8 11 9 4 6 6 3 3 3 3 2 2 2 3 2 3 3 4 4 4 4 4 4 5 9 12 16 16
4 5 5 4 4 3 8 10 9 6 7 7 8 10 9 11 8 7 8 9 5 3 4 3 4 4 4 3 2 3 2 2 4 3 1 3 3 3 4 4 9 11 12
4 5 5 3 3 3 3 8 15 5 6 7 8 7 7 6 9 6 8 9 9 9 9 5 5 5 5 4 3 3 4 4 4 5 1 4 3 4 5 6 12 14 18
5 4 5 2 6 3 1 6 12 6 5 7 8 8 6 6 7 8 8 8 7 7 7 3 6 7 7 6 5 3 3 4 3 4 3 4 3 4 3 5 10 15 17
4 4 4 4 4 4 3 5 7 5 5 7 7 5 5 7 12 13 6 7 8 7 9 12 9 9 11 10 3 1 3 1 3 3 3 1 2 2 3 4 5 13 18
2 4 6 5 6 5 4 5 7 3 6 6 7 6 7 9 11 10 5 5 7 7 8 10 9 7 8 11 7 3 2 2 2 3 4 3 2 3 5 3 1 2 3
Wind_Direction
176 209 211 202 196 182 203 207 208 223 234 219 208 221 239 239 205 181 196 198 203 206 205 205 200 196 196 201 206 210 209 209 210 212 217 208 205 210 207 209 212 211 214
188 156 193 305 220 183 191 187 205 211 230 236 260 242 242 237 237 154 203 205 212 212 214 203 206 204 202 206 209 212 213 212 210 212 215 221 206 208 215 215 218 222 222
181 191 212 332 300 182 189 211 243 236 241 259 252 252 253 257 262 203 192 211 212 215 213 209 213 216 211 208 211 213 214 215 214 214 215 217 214 210 217 217 222 225 228
176 162 203 271 262 235 205 194 230 229 236 251 255 253 242 234 234 247 220 201 211 207 206 209 213 220 221 218 216 212 214 216 217 217 219 218 216 216 218 221 222 224 229
196 167 201 247 241 259 261 260 231 184 225 244 252 253 262 220 224 236 234 201 206 207 202 218 215 216 223 225 225 220 216 216 217 218 218 218 217 218 217 219 221 223 224
211 180 200 228 233 198 238 214 220 224 228 233 258 260 255 251 231 230 248 236 234 210 207 205 211 223 221 222 229 230 229 222 215 217 218 216 218 219 219 219 221 223 223
198 194 216 233 190 46 273 208 216 230 274 244 254 287 267 253 215 209 243 183 231 228 213 218 191 212 224 224 227 230 232 226 219 218 216 216 215 216 218 221 219 221 223
307 240 214 218 138 115 351 274 235 259 245 208 212 198 309 339 305 238 248 257 262 285 225 174 215 199 224 224 220 224 231 233 227 222 221 213 212 213 214 218 219 219 222
278 268 207 172 161 141 224 249 239 222 254 280 236 179 345 261 311 329 253 255 126 156 123 321 332 216 31 269 252 246 230 221 225 225 223 220 212 210 212 214 217 218 220
237 278 233 223 164 193 234 260 247 256 217 258 270 195 177 164 220 323 352 2 254 257 131 321 265 22 16 266 304 263 240 223 220 223 223 219 216 211 210 213 217 219 219
271 238 126 73 17 245 240 262 272 274 252 234 226 276 305 358 181 177 274 276 322 291 234 253 169 144 125 90 42 9 344 281 210 214 226 220 216 214 211 213 215 219 221
58 60 67 45 9 7 313 293 295 276 268 266 260 253 218 198 254 229 242 242 230 231 236 255 189 160 189 103 17 357 338 322 260 211 216 219 215 216 213 215 217 221 224
69 38 35 38 30 8 341 309 297 280 275 265 264 266 250 237 211 209 199 253 243 254 228 249 222 218 157 175 228 172 224 270 255 215 209 211 212 211 217 216 217 219 224
43 44 39 21 8 9 347 338 323 303 303 283 298 295 281 265 254 215 213 194 275 243 249 245 153 189 182 180 221 224 225 234 282 255 221 210 208 209 213 218 220 225 222
25 21 20 11 352 349 342 334 336 335 7 333 312 292 284 280 277 260 243 199 208 278 283 247 199 188 208 227 224 228 241 207 240 236 230 221 210 212 212 211 214 220 228
23 12 3 357 345 342 342 352 339 331 341 323 320 321 310 292 284 275 264 263 226 214 254 192 224 181 189 224 260 241 268 271 272 256 226 218 211 207 212 218 224 225 217
16 0 345 345 341 349 347 349 345 340 344 336 333 331 329 324 299 291 287 277 266 193 243 267 236 202 179 210 226 244 252 263 265 245 232 225 215 210 213 216 215 221 220
359 335 340 344 334 331 328 340 348 351 358 358 342 356 339 338 339 315 302 289 269 258 218 265 265 244 209 209 226 219 236 246 245 234 230 227 212 221 231 220 216 219 218
340 336 345 324 314 21 37 26 11 354 344 329 328 328 321 329 326 316 311 291 279 280 261 234 267 244 250 230 247 253 244 236 239 253 256 232 200 217 228 224 219 221 221
359 355 6 13 36 54 39 16 9 347 337 328 319 314 308 303 296 304 306 286 273 283 292 285 252 260 248 274 235 262 285 251 245 252 315 198 174 201 213 222 235 238 227
353 19 13 11 15 89 35 8 349 326 313 309 305 299 283 274 288 291 281 309 298 301 306 297 282 257 269 305 288 285 269 288 270 216 219 200 200 205 209 223 235 231 232
3 7 344 357 341 37 24 3 345 304 296 291 293 294 283 286 292 331 346 344 303 290 283 262 270 271 258 247 237 261 289 312 313 337 31 287 176 257 248 233 218 221 219
354 346 297 267 85 106 32 350 337 313 294 291 297 305 322 7 19 356 329 315 311 302 238 240 256 258 264 229 231 266 235 227 234 271 297 277 181 233 242 248 244 237 237
9 352 331 61 119 181 193 354 337 327 347 348 341 335 27 17 8 353 332 332 323 303 297 260 225 253 242 256 235 231 263 282 280 275 196 248 195 243 241 243 238 244 260
336 327 316 328 175 195 136 357 345 346 351 340 338 5 30 14 355 360 348 344 337 330 343 324 298 294 299 290 250 352 308 352 312 300 325 190 319 272 245 246 243 253 260
274 300 299 288 277 153 119 26 0 6 359 340 327 344 24 6 353 360 358 345 340 313 329 330 340 355 17 25 17 324 7 301 301 322 284 25 341 20 328 298 178 80 266